Luverne, MN

11:07 PM CST on February 19, 2017 (GMT -0600)
Luverne

Weather History for KLYV - February, 2014

Change the Weather History Date:

Thursday, February 20, 2014

  Actual Average (KPQN) Record (KPQN)
Temperature  
Mean Temperature 27 °F -  
Max Temperature 37 °F 30 °F 51 °F (2003)
Min Temperature 17 °F 14 °F -20 °F (2008)
Degree Days  
Heating Degree Days 38    
Moisture  
Dew Point 26 °F    
Average Humidity 83    
Maximum Humidity 93    
Minimum Humidity 70    
Precipitation  
Precipitation 0.00 in - - ()
Sea Level Pressure  
Sea Level Pressure 29.57 in    
Wind  
Wind Speed 12 mph (NW)    
Max Wind Speed 31 mph    
Max Gust Speed 41 mph    
Visibility 8 miles    
Events      
Averages and records for this station are not official NWS values.
T = Trace of Precipitation, MM = Missing Value Source: NWS Daily Summary

Daily Weather History Graph

Daily Weather History Graph

Search for Another Location

Airport or City:

Trip Planner

Search our weather history database for the weather conditions in past years. The results will help you decide how hot, cold, wet, or windy it might be!

Date:

Astronomy

Feb. 20, 2014 Rise Set
Actual Time 7:15 AM CST 6:01 PM CST
Civil Twilight 6:46 AM CST 6:31 PM CST
Nautical Twilight 6:13 AM CST 7:04 PM CST
Astronomical Twilight 5:40 AM CST 7:37 PM CST
Moon No Moon Rise 9:48 AM CST
Length of Visible Light 11h 44m
Length of Day
10h 46m
Waning Gibbous, 70% of the Moon is Illuminated
Feb 20
Waning Gibbous
Feb 22
Last Quarter
Mar 1
New
Mar 8
First Quarter
Mar 16
Full

Hourly Weather History & Observations

Time (CST) Temp. Windchill Dew Point Humidity Pressure Visibility Wind Dir Wind Speed Gust Speed Precip Events Conditions
12:05 AM 35.6 °F 31.7 °F 30.2 °F 81% 29.59 in 10.0 mi SSE 4.6 mph - N/A   Clear
12:25 AM 33.8 °F - 28.4 °F 81% 29.60 in 10.0 mi Calm Calm - N/A   Clear
12:45 AM 32.0 °F 28.7 °F 28.4 °F 87% 29.60 in 10.0 mi South 3.5 mph - N/A   Clear
1:05 AM 33.8 °F 27.7 °F 30.2 °F 87% 29.58 in 10.0 mi SSE 6.9 mph - N/A   Clear
1:25 AM 33.8 °F 27.0 °F 28.4 °F 81% 29.57 in 10.0 mi South 8.1 mph - N/A   Clear
1:45 AM 33.8 °F 26.4 °F 28.4 °F 81% 29.58 in 10.0 mi South 9.2 mph - N/A   Clear
2:05 AM 32.0 °F 24.2 °F 28.4 °F 87% 29.58 in 10.0 mi South 9.2 mph - N/A   Clear
2:25 AM 32.0 °F 24.2 °F 28.4 °F 87% 29.59 in 10.0 mi South 9.2 mph - N/A   Clear
2:45 AM 32.0 °F 24.2 °F 28.4 °F 87% 29.61 in 10.0 mi West 9.2 mph - N/A   Clear
3:05 AM 32.0 °F 24.8 °F 28.4 °F 87% 29.61 in 10.0 mi WNW 8.1 mph - N/A   Clear
3:25 AM 30.2 °F - 26.6 °F 86% 29.60 in 10.0 mi Calm Calm - N/A   Clear
3:45 AM 28.4 °F - 24.8 °F 86% 29.58 in 10.0 mi Calm Calm - N/A   Clear
4:05 AM 30.2 °F 25.4 °F 26.6 °F 86% 29.58 in 10.0 mi NW 4.6 mph - N/A   Clear
4:25 AM 30.2 °F 26.7 °F 26.6 °F 86% 29.59 in 10.0 mi NNW 3.5 mph - N/A   Clear
4:45 AM 32.0 °F 27.5 °F 26.6 °F 80% 29.56 in 10.0 mi North 4.6 mph - N/A   Clear
5:05 AM 33.8 °F 27.0 °F 28.4 °F 81% 29.58 in 10.0 mi NNW 8.1 mph - N/A   Clear
5:25 AM 33.8 °F 27.0 °F 28.4 °F 81% 29.58 in 10.0 mi NW 8.1 mph - N/A   Mostly Cloudy
5:45 AM 33.8 °F 26.4 °F 30.2 °F 87% 29.59 in 10.0 mi WNW 9.2 mph - N/A   Overcast
6:05 AM 35.6 °F 26.2 °F 30.2 °F 81% 29.57 in 10.0 mi NW 15.0 mph - N/A   Overcast
6:25 AM 33.8 °F 24.3 °F 30.2 °F 87% 29.56 in 10.0 mi NW 13.8 mph - N/A   Overcast
6:45 AM 35.6 °F 26.2 °F 30.2 °F 81% 29.57 in 10.0 mi NW 15.0 mph - N/A   Overcast
7:05 AM 35.6 °F 24.5 °F 30.2 °F 81% 29.56 in 10.0 mi NNW 20.7 mph - N/A   Overcast
7:25 AM 35.6 °F 25.2 °F 32.0 °F 87% 29.57 in 10.0 mi NNW 18.4 mph 24.2 mph N/A   Overcast
7:45 AM 35.6 °F 26.6 °F 32.0 °F 87% 29.57 in 10.0 mi NW 13.8 mph - N/A   Overcast
8:05 AM 35.6 °F 24.8 °F 32.0 °F 87% 29.57 in 3.0 mi NNW 19.6 mph 24.2 mph N/A   Overcast
8:25 AM 33.8 °F 25.8 °F 32.0 °F 93% 29.58 in 3.0 mi NNW 10.4 mph - N/A   Overcast
8:45 AM 33.8 °F 27.0 °F 32.0 °F 93% 29.59 in 5.0 mi NNW 8.1 mph - N/A   Overcast
9:05 AM 35.6 °F 29.9 °F 32.0 °F 87% 29.59 in 7.0 mi NNW 6.9 mph - N/A   Overcast
9:25 AM 35.6 °F 30.7 °F 32.0 °F 87% 29.59 in 5.0 mi North 5.8 mph - N/A   Overcast
9:45 AM 35.6 °F 31.7 °F 32.0 °F 87% 29.59 in 4.0 mi North 4.6 mph - N/A   Overcast
10:05 AM 35.6 °F 30.7 °F 32.0 °F 87% 29.57 in 3.0 mi North 5.8 mph - N/A   Overcast
10:25 AM 33.8 °F 29.6 °F 32.0 °F 93% 29.57 in 3.0 mi NNW 4.6 mph - N/A   Overcast
10:45 AM 33.8 °F 29.6 °F 32.0 °F 93% 29.56 in 3.0 mi NNW 4.6 mph - N/A   Overcast
11:05 AM 33.8 °F 29.6 °F 32.0 °F 93% 29.56 in 3.0 mi NW 4.6 mph - N/A   Overcast
11:25 AM 33.8 °F 27.0 °F 32.0 °F 93% 29.55 in 5.0 mi NW 8.1 mph - N/A   Overcast
11:45 AM 35.6 °F 29.9 °F 32.0 °F 87% 29.53 in 10.0 mi NNW 6.9 mph - N/A   Overcast
12:05 PM 35.6 °F 30.7 °F 32.0 °F 87% 29.53 in 10.0 mi NNW 5.8 mph - N/A   Overcast
12:25 PM 35.6 °F 29.2 °F 32.0 °F 87% 29.52 in 10.0 mi NW 8.1 mph - N/A   Overcast
12:45 PM 35.6 °F 28.0 °F 30.2 °F 81% 29.51 in 10.0 mi NW 10.4 mph - N/A   Overcast
1:05 PM 35.6 °F 26.6 °F 30.2 °F 81% 29.49 in 10.0 mi NW 13.8 mph - N/A   Overcast
1:25 PM 37.4 °F 27.8 °F 30.2 °F 75% 29.48 in 10.0 mi NW 17.3 mph 23.0 mph N/A   Overcast
1:45 PM 37.4 °F 28.2 °F 28.4 °F 70% 29.49 in 10.0 mi NW 16.1 mph 21.9 mph N/A   Mostly Cloudy
2:05 PM 37.4 °F 27.2 °F 28.4 °F 70% 29.48 in 10.0 mi NW 19.6 mph 25.3 mph N/A   Overcast
2:25 PM 37.4 °F 26.4 °F 28.4 °F 70% 29.48 in 10.0 mi NW 23.0 mph 28.8 mph N/A   Overcast
2:45 PM 37.4 °F 27.5 °F 28.4 °F 70% 29.48 in 10.0 mi NW 18.4 mph 28.8 mph N/A   Overcast
3:05 PM 35.6 °F 24.8 °F 28.4 °F 75% 29.49 in 10.0 mi NW 19.6 mph 26.5 mph N/A   Overcast
3:25 PM 35.6 °F 24.5 °F 28.4 °F 75% 29.50 in 10.0 mi NW 20.7 mph 28.8 mph N/A   Overcast
3:45 PM 35.6 °F 24.0 °F 28.4 °F 75% 29.51 in 10.0 mi WNW 23.0 mph 29.9 mph N/A   Overcast
4:05 PM 33.8 °F 22.2 °F 28.4 °F 81% 29.51 in 7.0 mi NW 20.7 mph 31.1 mph N/A   Overcast
4:25 PM 33.8 °F 21.9 °F 28.4 °F 81% 29.51 in 2.0 mi WNW 21.9 mph 31.1 mph N/A   Overcast
4:45 PM 33.8 °F 21.6 °F 30.2 °F 87% 29.51 in 2.0 mi WNW 23.0 mph 31.1 mph N/A   Overcast
5:05 PM 32.0 °F 18.6 °F 28.4 °F 87% 29.52 in 1.0 mi WNW 25.3 mph 36.8 mph N/A   Overcast
5:25 PM 32.0 °F 18.6 °F 28.4 °F 87% 29.52 in 1.2 mi WNW 25.3 mph 33.4 mph N/A   Overcast
5:45 PM 32.0 °F 18.1 °F 28.4 °F 87% 29.53 in 1.2 mi NW 27.6 mph 34.5 mph N/A   Overcast
6:05 PM 30.2 °F 15.2 °F 26.6 °F 86% 29.55 in 1.0 mi NW 29.9 mph 36.8 mph N/A   Overcast
6:25 PM 28.4 °F 12.5 °F 24.8 °F 86% 29.56 in 0.8 mi NW 31.1 mph 40.3 mph N/A   Overcast
6:45 PM 26.6 °F 10.3 °F 23.0 °F 86% 29.59 in 1.2 mi NW 29.9 mph 40.3 mph N/A   Overcast
7:05 PM 24.8 °F 7.9 °F 21.2 °F 86% 29.60 in 1.5 mi NW 29.9 mph 36.8 mph N/A   Overcast
7:25 PM 24.8 °F 8.7 °F 19.4 °F 80% 29.60 in 1.8 mi NW 26.5 mph 38.0 mph N/A   Overcast
7:45 PM 23.0 °F 5.4 °F 17.6 °F 80% 29.61 in 2.5 mi NW 29.9 mph 41.4 mph N/A   Overcast
8:05 PM 23.0 °F 6.0 °F 17.6 °F 80% 29.61 in 4.0 mi NW 27.6 mph 36.8 mph N/A   Overcast
8:25 PM 21.2 °F 3.3 °F 15.8 °F 80% 29.62 in 4.0 mi NW 28.8 mph 36.8 mph N/A   Overcast
8:45 PM 21.2 °F 2.7 °F 15.8 °F 80% 29.62 in 7.0 mi NW 31.1 mph 41.4 mph N/A   Overcast
9:05 PM 21.2 °F 3.0 °F 14.0 °F 74% 29.62 in 10.0 mi NW 29.9 mph 35.7 mph N/A   Overcast
9:25 PM 21.2 °F 3.9 °F 14.0 °F 74% 29.63 in 7.0 mi NW 26.5 mph 38.0 mph N/A   Overcast
9:45 PM 21.2 °F 3.3 °F 14.0 °F 74% 29.62 in 10.0 mi NW 28.8 mph 38.0 mph N/A   Overcast
10:05 PM 21.2 °F 3.0 °F 14.0 °F 74% 29.63 in 10.0 mi NW 29.9 mph 33.4 mph N/A   Overcast
10:25 PM 19.4 °F 1.1 °F 12.2 °F 74% 29.62 in 10.0 mi NW 27.6 mph 33.4 mph N/A   Overcast
10:45 PM 19.4 °F 1.8 °F 12.2 °F 74% 29.63 in 10.0 mi NW 25.3 mph 34.5 mph N/A   Overcast
11:05 PM 17.6 °F -0.3 °F 12.2 °F 79% 29.63 in 10.0 mi NW 24.2 mph 32.2 mph N/A   Mostly Cloudy
11:25 PM 17.6 °F 0.1 °F 10.4 °F 73% 29.62 in 10.0 mi WNW 23.0 mph 27.6 mph N/A   Scattered Clouds
11:45 PM 17.6 °F 0.9 °F 10.4 °F 73% 29.62 in 10.0 mi WNW 20.7 mph 29.9 mph N/A   Scattered Clouds